QPF
0.00 0.00 0.00 0.00 0.00 0.01 0.01 0.01 0.01 0.00 0.01 0.01 0.01 0.02 0.02 0.01 0.01 0.02 0.05 0.06 0.07 0.08 0.09 0.07 0.06 0.05 0.05 0.06 0.06 0.06 0.06 0.04 0.05 0.07 0.08 0.08 0.06 0.04 0.03 0.03 0.03 0.03 0.02
0.00 0.00 0.00 0.00 0.00 0.00 0.00 0.01 0.01 0.01 0.01 0.01 0.01 0.02 0.02 0.01 0.01 0.01 0.01 0.02 0.03 0.04 0.06 0.06 0.05 0.04 0.04 0.04 0.03 0.04 0.04 0.03 0.03 0.05 0.06 0.05 0.03 0.03 0.03 0.03 0.03 0.03 0.03
0.00 0.00 0.00 0.00 0.00 0.00 0.00 0.00 0.00 0.01 0.01 0.01 0.02 0.02 0.02 0.01 0.01 0.00 0.00 0.01 0.01 0.01 0.03 0.04 0.05 0.04 0.03 0.03 0.03 0.03 0.04 0.04 0.04 0.04 0.04 0.03 0.03 0.03 0.03 0.02 0.02 0.02 0.02
0.00 0.00 0.00 0.00 0.00 0.00 0.00 0.00 0.00 0.00 0.01 0.01 0.01 0.01 0.01 0.01 0.01 0.01 0.01 0.01 0.01 0.01 0.01 0.03 0.04 0.03 0.03 0.03 0.02 0.04 0.06 0.05 0.04 0.03 0.03 0.03 0.03 0.03 0.03 0.02 0.01 0.01 0.01
0.00 0.00 0.00 0.00 0.00 0.00 0.00 0.00 0.00 0.00 0.00 0.00 0.01 0.01 0.01 0.01 0.01 0.01 0.02 0.03 0.02 0.01 0.01 0.02 0.03 0.03 0.04 0.04 0.03 0.07 0.08 0.04 0.03 0.02 0.03 0.03 0.02 0.02 0.02 0.01 0.01 0.02 0.01
0.00 0.00 0.00 0.00 0.00 0.00 0.00 0.00 0.00 0.00 0.00 0.00 0.00 0.00 0.00 0.01 0.01 0.01 0.02 0.03 0.03 0.03 0.02 0.03 0.03 0.02 0.02 0.03 0.06 0.08 0.05 0.02 0.03 0.03 0.02 0.02 0.01 0.02 0.01 0.01 0.01 0.01 0.01
0.00 0.00 0.00 0.00 0.00 0.00 0.00 0.00 0.00 0.00 0.00 0.00 0.00 0.00 0.00 0.01 0.01 0.01 0.02 0.04 0.05 0.05 0.04 0.04 0.04 0.03 0.02 0.04 0.05 0.05 0.03 0.03 0.03 0.03 0.02 0.02 0.01 0.02 0.02 0.01 0.01 0.01 0.01
0.00 0.00 0.00 0.00 0.00 0.00 0.00 0.01 0.01 0.00 0.00 0.00 0.00 0.00 0.00 0.00 0.01 0.01 0.02 0.03 0.04 0.05 0.06 0.06 0.06 0.05 0.03 0.04 0.02 0.02 0.03 0.04 0.04 0.03 0.03 0.02 0.02 0.01 0.01 0.01 0.01 0.01 0.01
0.00 0.00 0.00 0.00 0.00 0.00 0.01 0.01 0.01 0.00 0.00 0.00 0.00 0.00 0.00 0.00 0.01 0.02 0.02 0.04 0.04 0.04 0.07 0.06 0.06 0.05 0.03 0.03 0.02 0.02 0.02 0.03 0.04 0.04 0.04 0.03 0.02 0.01 0.01 0.01 0.01 0.01 0.01
0.00 0.00 0.00 0.00 0.00 0.00 0.01 0.01 0.00 0.00 0.00 0.00 0.00 0.00 0.00 0.00 0.00 0.01 0.02 0.03 0.03 0.04 0.06 0.08 0.06 0.05 0.04 0.03 0.02 0.01 0.01 0.02 0.03 0.05 0.04 0.03 0.02 0.01 0.01 0.02 0.01 0.01 0.01
0.00 0.00 0.00 0.00 0.00 0.00 0.01 0.00 0.00 0.00 0.00 0.00 0.00 0.00 0.00 0.01 0.01 0.01 0.01 0.02 0.03 0.04 0.06 0.07 0.07 0.07 0.05 0.03 0.02 0.02 0.02 0.02 0.02 0.02 0.03 0.04 0.03 0.02 0.01 0.01 0.01 0.01 0.01
0.00 0.00 0.01 0.01 0.01 0.00 0.01 0.00 0.01 0.00 0.00 0.00 0.00 0.00 0.00 0.00 0.01 0.01 0.01 0.01 0.02 0.03 0.04 0.04 0.05 0.05 0.05 0.04 0.03 0.02 0.02 0.02 0.01 0.02 0.02 0.02 0.03 0.03 0.03 0.02 0.02 0.01 0.01
0.00 0.01 0.02 0.01 0.01 0.01 0.01 0.01 0.01 0.01 0.01 0.00 0.00 0.00 0.00 0.00 0.00 0.00 0.01 0.02 0.01 0.02 0.02 0.02 0.04 0.03 0.02 0.02 0.01 0.01 0.02 0.03 0.02 0.02 0.02 0.02 0.02 0.02 0.03 0.03 0.03 0.02 0.01
0.01 0.01 0.02 0.01 0.01 0.01 0.01 0.01 0.01 0.00 0.00 0.00 0.00 0.00 0.01 0.00 0.00 0.00 0.00 0.01 0.01 0.01 0.01 0.01 0.02 0.02 0.02 0.02 0.01 0.01 0.02 0.03 0.04 0.02 0.02 0.02 0.02 0.02 0.02 0.02 0.02 0.02 0.02
0.01 0.01 0.01 0.01 0.02 0.02 0.01 0.01 0.01 0.01 0.01 0.01 0.00 0.01 0.01 0.01 0.01 0.00 0.00 0.01 0.01 0.01 0.01 0.01 0.01 0.02 0.02 0.02 0.01 0.01 0.01 0.03 0.03 0.03 0.02 0.01 0.01 0.01 0.02 0.02 0.02 0.02 0.02
0.01 0.01 0.01 0.01 0.01 0.01 0.02 0.02 0.01 0.01 0.02 0.01 0.01 0.01 0.01 0.01 0.01 0.00 0.01 0.01 0.01 0.01 0.01 0.00 0.00 0.01 0.01 0.02 0.02 0.01 0.01 0.02 0.03 0.03 0.02 0.01 0.01 0.01 0.01 0.01 0.01 0.01 0.01
0.02 0.01 0.01 0.01 0.01 0.01 0.01 0.01 0.01 0.01 0.01 0.01 0.01 0.01 0.01 0.01 0.01 0.01 0.01 0.01 0.02 0.01 0.01 0.01 0.01 0.02 0.01 0.01 0.01 0.01 0.01 0.01 0.01 0.02 0.03 0.02 0.01 0.01 0.01 0.01 0.01 0.01 0.01
0.02 0.02 0.01 0.01 0.00 0.01 0.01 0.01 0.01 0.01 0.01 0.01 0.01 0.01 0.01 0.01 0.01 0.01 0.01 0.02 0.03 0.02 0.01 0.01 0.01 0.02 0.02 0.01 0.01 0.01 0.01 0.01 0.01 0.01 0.02 0.01 0.01 0.01 0.00 0.01 0.01 0.01 0.01
0.02 0.01 0.01 0.00 0.00 0.00 0.01 0.01 0.02 0.02 0.01 0.01 0.01 0.01 0.01 0.01 0.01 0.01 0.01 0.02 0.03 0.02 0.02 0.02 0.00 0.01 0.02 0.02 0.02 0.02 0.02 0.02 0.02 0.01 0.01 0.01 0.01 0.01 0.00 0.01 0.01 0.01 0.01
0.02 0.01 0.01 0.01 0.01 0.01 0.01 0.02 0.01 0.01 0.01 0.01 0.00 0.01 0.01 0.01 0.01 0.00 0.01 0.01 0.01 0.01 0.01 0.01 0.01 0.01 0.01 0.02 0.02 0.02 0.02 0.02 0.02 0.01 0.01 0.01 0.02 0.01 0.01 0.00 0.01 0.01 0.01
0.02 0.01 0.01 0.01 0.01 0.01 0.02 0.02 0.01 0.01 0.01 0.01 0.00 0.00 0.00 0.01 0.01 0.02 0.02 0.01 0.01 0.01 0.01 0.01 0.00 0.01 0.01 0.01 0.01 0.02 0.02 0.02 0.02 0.01 0.01 0.01 0.01 0.01 0.01 0.01 0.01 0.01 0.01
0.02 0.01 0.01 0.01 0.02 0.02 0.01 0.02 0.01 0.00 0.00 0.00 0.00 0.00 0.00 0.01 0.01 0.02 0.02 0.02 0.02 0.01 0.01 0.01 0.00 0.01 0.01 0.01 0.01 0.02 0.02 0.02 0.01 0.01 0.01 0.01 0.02 0.01 0.00 0.01 0.01 0.01 0.01
0.02 0.02 0.01 0.01 0.01 0.01 0.01 0.01 0.01 0.00 0.00 0.00 0.00 0.01 0.00 0.00 0.00 0.01 0.01 0.01 0.01 0.01 0.01 0.01 0.00 0.00 0.01 0.01 0.02 0.03 0.03 0.03 0.03 0.02 0.02 0.01 0.02 0.02 0.01 0.01 0.01 0.01 0.01
0.02 0.02 0.02 0.01 0.01 0.01 0.01 0.01 0.01 0.01 0.01 0.00 0.00 0.00 0.00 0.00 0.00 0.01 0.00 0.00 0.00 0.00 0.00 0.01 0.01 0.01 0.01 0.01 0.01 0.01 0.02 0.01 0.01 0.01 0.01 0.01 0.01 0.02 0.01 0.01 0.02 0.01 0.01
0.03 0.02 0.02 0.02 0.01 0.01 0.01 0.01 0.02 0.01 0.01 0.01 0.01 0.01 0.01 0.01 0.01 0.01 0.01 0.00 0.00 0.00 0.01 0.01 0.01 0.01 0.01 0.01 0.01 0.01 0.01 0.01 0.01 0.01 0.01 0.02 0.02 0.02 0.03 0.02 0.02 0.02 0.01
0.03 0.02 0.02 0.01 0.01 0.01 0.01 0.02 0.02 0.02 0.01 0.01 0.01 0.01 0.01 0.01 0.01 0.02 0.02 0.01 0.01 0.01 0.01 0.01 0.01 0.01 0.01 0.01 0.01 0.01 0.01 0.01 0.01 0.01 0.01 0.02 0.02 0.03 0.05 0.03 0.03 0.01 0.01
MSLP
1015.25 1015.36 1015.42 1015.45 1015.50 1015.59 1015.76 1015.99 1016.29 1016.62 1016.94 1017.22 1017.45 1017.61 1017.72 1017.78 1017.80 1017.80 1017.80 1017.78 1017.75 1017.71 1017.66 1017.60 1017.54 1017.48 1017.44 1017.42 1017.41 1017.41 1017.41 1017.41 1017.38 1017.35 1017.29 1017.23 1017.16 1017.08 1017.00 1016.91 1016.81 1016.69 1016.56
1015.26 1015.39 1015.49 1015.56 1015.64 1015.77 1015.95 1016.20 1016.49 1016.81 1017.13 1017.41 1017.64 1017.81 1017.92 1017.98 1018.01 1018.01 1018.00 1017.99 1017.97 1017.95 1017.93 1017.92 1017.90 1017.90 1017.89 1017.89 1017.90 1017.89 1017.88 1017.85 1017.81 1017.76 1017.70 1017.64 1017.58 1017.51 1017.44 1017.35 1017.23 1017.10 1016.94
1015.23 1015.38 1015.52 1015.65 1015.80 1015.98 1016.20 1016.47 1016.78 1017.10 1017.41 1017.69 1017.92 1018.09 1018.20 1018.26 1018.28 1018.27 1018.25 1018.23 1018.21 1018.20 1018.20 1018.22 1018.24 1018.27 1018.31 1018.33 1018.35 1018.35 1018.33 1018.28 1018.23 1018.16 1018.10 1018.04 1017.98 1017.92 1017.84 1017.75 1017.63 1017.47 1017.30
1015.18 1015.37 1015.55 1015.75 1015.97 1016.22 1016.50 1016.80 1017.13 1017.45 1017.76 1018.03 1018.25 1018.42 1018.53 1018.59 1018.60 1018.58 1018.55 1018.51 1018.48 1018.46 1018.46 1018.49 1018.54 1018.61 1018.67 1018.73 1018.76 1018.77 1018.74 1018.69 1018.62 1018.55 1018.47 1018.40 1018.34 1018.27 1018.19 1018.09 1017.96 1017.80 1017.61
1015.16 1015.35 1015.58 1015.84 1016.14 1016.45 1016.79 1017.14 1017.48 1017.81 1018.11 1018.38 1018.60 1018.76 1018.88 1018.94 1018.95 1018.93 1018.88 1018.82 1018.76 1018.73 1018.73 1018.76 1018.82 1018.91 1019.00 1019.08 1019.13 1019.15 1019.13 1019.08 1019.00 1018.91 1018.82 1018.74 1018.66 1018.58 1018.49 1018.38 1018.24 1018.08 1017.90
1015.17 1015.36 1015.61 1015.92 1016.28 1016.66 1017.05 1017.42 1017.78 1018.11 1018.41 1018.67 1018.89 1019.07 1019.20 1019.27 1019.30 1019.28 1019.22 1019.15 1019.08 1019.02 1019.01 1019.03 1019.10 1019.20 1019.31 1019.41 1019.49 1019.53 1019.52 1019.46 1019.38 1019.28 1019.17 1019.06 1018.96 1018.86 1018.75 1018.63 1018.50 1018.34 1018.18
1015.22 1015.38 1015.64 1015.98 1016.37 1016.79 1017.21 1017.60 1017.97 1018.29 1018.59 1018.85 1019.08 1019.28 1019.44 1019.55 1019.61 1019.61 1019.56 1019.49 1019.41 1019.34 1019.31 1019.33 1019.39 1019.50 1019.62 1019.75 1019.85 1019.90 1019.90 1019.85 1019.76 1019.64 1019.51 1019.38 1019.26 1019.14 1019.02 1018.90 1018.77 1018.63 1018.50
1015.29 1015.42 1015.67 1016.01 1016.41 1016.84 1017.26 1017.65 1018.00 1018.32 1018.61 1018.88 1019.13 1019.36 1019.57 1019.73 1019.83 1019.88 1019.87 1019.81 1019.74 1019.67 1019.63 1019.64 1019.70 1019.81 1019.95 1020.09 1020.21 1020.28 1020.29 1020.24 1020.15 1020.02 1019.87 1019.72 1019.57 1019.44 1019.32 1019.20 1019.09 1018.98 1018.88
1015.37 1015.47 1015.70 1016.02 1016.40 1016.81 1017.21 1017.57 1017.90 1018.20 1018.48 1018.75 1019.03 1019.30 1019.56 1019.78 1019.96 1020.06 1020.10 1020.08 1020.03 1019.97 1019.94 1019.95 1020.01 1020.13 1020.27 1020.42 1020.55 1020.63 1020.65 1020.62 1020.52 1020.38 1020.23 1020.07 1019.92 1019.78 1019.66 1019.56 1019.47 1019.39 1019.33
1015.47 1015.55 1015.74 1016.03 1016.38 1016.74 1017.10 1017.42 1017.70 1017.97 1018.23 1018.51 1018.80 1019.12 1019.43 1019.73 1019.97 1020.14 1020.24 1020.26 1020.25 1020.21 1020.19 1020.21 1020.28 1020.40 1020.55 1020.71 1020.85 1020.94 1020.97 1020.94 1020.85 1020.72 1020.56 1020.41 1020.27 1020.15 1020.05 1019.97 1019.91 1019.86 1019.84
1015.57 1015.64 1015.81 1016.06 1016.36 1016.68 1016.97 1017.24 1017.48 1017.70 1017.94 1018.21 1018.52 1018.86 1019.22 1019.57 1019.87 1020.11 1020.26 1020.34 1020.36 1020.36 1020.36 1020.39 1020.47 1020.60 1020.76 1020.92 1021.06 1021.16 1021.20 1021.18 1021.10 1020.98 1020.85 1020.72 1020.60 1020.51 1020.44 1020.40 1020.37 1020.37 1020.37
1015.65 1015.72 1015.88 1016.11 1016.37 1016.63 1016.88 1017.08 1017.27 1017.45 1017.66 1017.92 1018.23 1018.58 1018.97 1019.36 1019.70 1019.98 1020.18 1020.31 1020.37 1020.40 1020.43 1020.48 1020.58 1020.71 1020.88 1021.04 1021.19 1021.29 1021.34 1021.32 1021.26 1021.16 1021.06 1020.96 1020.89 1020.84 1020.82 1020.82 1020.83 1020.85 1020.88
1015.68 1015.78 1015.94 1016.16 1016.39 1016.61 1016.81 1016.97 1017.12 1017.26 1017.45 1017.68 1017.97 1018.33 1018.72 1019.12 1019.49 1019.79 1020.02 1020.18 1020.28 1020.34 1020.40 1020.48 1020.60 1020.74 1020.91 1021.08 1021.23 1021.33 1021.38 1021.38 1021.33 1021.26 1021.19 1021.13 1021.10 1021.10 1021.13 1021.18 1021.24 1021.29 1021.33
1015.61 1015.75 1015.94 1016.15 1016.37 1016.58 1016.75 1016.89 1017.01 1017.14 1017.29 1017.51 1017.78 1018.12 1018.50 1018.89 1019.26 1019.57 1019.81 1020.00 1020.12 1020.22 1020.31 1020.42 1020.56 1020.72 1020.90 1021.07 1021.22 1021.32 1021.37 1021.37 1021.34 1021.29 1021.25 1021.23 1021.25 1021.30 1021.37 1021.47 1021.56 1021.63 1021.69
1015.42 1015.60 1015.81 1016.05 1016.28 1016.49 1016.66 1016.80 1016.92 1017.04 1017.18 1017.38 1017.64 1017.96 1018.31 1018.68 1019.03 1019.33 1019.59 1019.78 1019.93 1020.06 1020.19 1020.33 1020.50 1020.69 1020.88 1021.05 1021.20 1021.30 1021.34 1021.35 1021.32 1021.28 1021.26 1021.27 1021.32 1021.41 1021.53 1021.65 1021.77 1021.87 1021.94
1015.06 1015.28 1015.53 1015.79 1016.04 1016.28 1016.48 1016.64 1016.78 1016.91 1017.07 1017.27 1017.51 1017.81 1018.13 1018.47 1018.80 1019.10 1019.35 1019.56 1019.74 1019.91 1020.08 1020.26 1020.46 1020.67 1020.88 1021.06 1021.21 1021.30 1021.33 1021.33 1021.30 1021.26 1021.25 1021.27 1021.34 1021.45 1021.58 1021.73 1021.86 1021.97 1022.04
1014.55 1014.79 1015.07 1015.36 1015.65 1015.92 1016.16 1016.36 1016.54 1016.71 1016.89 1017.09 1017.34 1017.62 1017.93 1018.24 1018.56 1018.85 1019.11 1019.34 1019.56 1019.77 1019.98 1020.21 1020.45 1020.69 1020.92 1021.11 1021.25 1021.33 1021.36 1021.34 1021.30 1021.25 1021.23 1021.25 1021.30 1021.41 1021.53 1021.68 1021.81 1021.92 1022.00
1013.92 1014.17 1014.47 1014.78 1015.11 1015.42 1015.70 1015.96 1016.18 1016.39 1016.60 1016.83 1017.08 1017.35 1017.65 1017.96 1018.26 1018.55 1018.83 1019.09 1019.35 1019.61 1019.88 1020.16 1020.44 1020.71 1020.96 1021.16 1021.30 1021.38 1021.40 1021.36 1021.30 1021.24 1021.20 1021.19 1021.22 1021.29 1021.40 1021.51 1021.63 1021.72 1021.79
1013.22 1013.48 1013.79 1014.12 1014.47 1014.82 1015.15 1015.44 1015.71 1015.96 1016.20 1016.44 1016.70 1016.97 1017.27 1017.57 1017.88 1018.18 1018.49 1018.79 1019.09 1019.41 1019.73 1020.05 1020.38 1020.69 1020.96 1021.17 1021.32 1021.40 1021.41 1021.37 1021.29 1021.21 1021.14 1021.10 1021.09 1021.12 1021.17 1021.25 1021.32 1021.38 1021.43
1012.52 1012.79 1013.10 1013.45 1013.82 1014.18 1014.54 1014.86 1015.16 1015.43 1015.69 1015.94 1016.20 1016.47 1016.76 1017.07 1017.39 1017.71 1018.05 1018.39 1018.74 1019.11 1019.48 1019.85 1020.22 1020.56 1020.85 1021.08 1021.24 1021.33 1021.35 1021.31 1021.23 1021.13 1021.04 1020.97 1020.92 1020.89 1020.89 1020.90 1020.92 1020.94 1020.95
1011.86 1012.14 1012.46 1012.82 1013.20 1013.58 1013.94 1014.27 1014.57 1014.84 1015.10 1015.35 1015.60 1015.87 1016.15 1016.46 1016.79 1017.14 1017.50 1017.89 1018.28 1018.69 1019.11 1019.52 1019.92 1020.28 1020.60 1020.85 1021.03 1021.14 1021.17 1021.15 1021.09 1021.00 1020.90 1020.81 1020.72 1020.65 1020.59 1020.53 1020.48 1020.44 1020.40
1011.26 1011.57 1011.91 1012.28 1012.66 1013.03 1013.39 1013.71 1013.99 1014.25 1014.48 1014.71 1014.95 1015.20 1015.48 1015.78 1016.12 1016.49 1016.88 1017.29 1017.72 1018.17 1018.61 1019.05 1019.47 1019.86 1020.19 1020.47 1020.68 1020.81 1020.89 1020.91 1020.88 1020.82 1020.73 1020.64 1020.53 1020.42 1020.31 1020.19 1020.07 1019.96 1019.86
1010.68 1011.04 1011.41 1011.80 1012.19 1012.56 1012.90 1013.20 1013.45 1013.68 1013.88 1014.08 1014.29 1014.53 1014.79 1015.09 1015.43 1015.81 1016.22 1016.66 1017.11 1017.58 1018.04 1018.49 1018.93 1019.32 1019.67 1019.97 1020.21 1020.39 1020.51 1020.59 1020.61 1020.60 1020.56 1020.49 1020.38 1020.26 1020.11 1019.93 1019.75 1019.58 1019.41
1010.09 1010.51 1010.93 1011.36 1011.76 1012.13 1012.45 1012.73 1012.96 1013.16 1013.33 1013.51 1013.70 1013.91 1014.17 1014.47 1014.81 1015.20 1015.62 1016.06 1016.52 1016.99 1017.46 1017.91 1018.34 1018.74 1019.10 1019.42 1019.69 1019.92 1020.10 1020.24 1020.34 1020.40 1020.41 1020.38 1020.30 1020.18 1020.01 1019.81 1019.58 1019.35 1019.13
1009.41 1009.91 1010.40 1010.87 1011.30 1011.68 1012.01 1012.28 1012.51 1012.69 1012.86 1013.03 1013.21 1013.42 1013.68 1013.98 1014.33 1014.71 1015.14 1015.58 1016.04 1016.50 1016.96 1017.40 1017.82 1018.21 1018.58 1018.91 1019.21 1019.48 1019.72 1019.92 1020.09 1020.22 1020.30 1020.33 1020.29 1020.19 1020.03 1019.82 1019.57 1019.29 1019.02
1008.62 1009.21 1009.77 1010.29 1010.76 1011.18 1011.53 1011.83 1012.07 1012.28 1012.47 1012.66 1012.86 1013.09 1013.36 1013.68 1014.03 1014.42 1014.84 1015.28 1015.73 1016.17 1016.61 1017.03 1017.43 1017.80 1018.16 1018.49 1018.81 1019.11 1019.39 1019.65 1019.88 1020.07 1020.21 1020.30 1020.31 1020.25 1020.11 1019.91 1019.65 1019.36 1019.06
Thickness
5733 5732 5731 5731 5730 5729 5728 5727 5727 5726 5726 5726 5725 5725 5724 5723 5724 5724 5724 5725 5726 5725 5725 5725 5724 5724 5724 5723 5723 5723 5723 5723 5723 5723 5723 5723 5723 5723 5723 5723 5722 5722 5722
5730 5729 5728 5727 5726 5726 5725 5724 5723 5722 5721 5721 5720 5720 5719 5719 5718 5718 5719 5719 5720 5719 5719 5719 5719 5719 5718 5718 5717 5717 5717 5717 5717 5717 5717 5717 5717 5717 5717 5718 5718 5718 5717
5728 5727 5725 5724 5723 5722 5721 5720 5719 5718 5717 5716 5715 5715 5714 5714 5713 5713 5713 5713 5714 5714 5713 5713 5713 5713 5712 5712 5711 5711 5711 5711 5711 5711 5711 5711 5711 5711 5711 5712 5712 5712 5712
5725 5724 5722 5720 5720 5719 5717 5716 5714 5712 5710 5709 5708 5708 5708 5708 5708 5708 5708 5707 5707 5707 5707 5708 5707 5707 5707 5707 5706 5705 5705 5706 5705 5705 5705 5705 5705 5705 5705 5706 5706 5707 5707
5722 5721 5718 5717 5716 5714 5713 5712 5708 5707 5704 5703 5703 5702 5702 5702 5702 5702 5702 5701 5701 5701 5701 5702 5702 5702 5702 5701 5701 5700 5700 5700 5700 5700 5700 5699 5699 5699 5699 5700 5700 5701 5701
5719 5717 5715 5713 5712 5709 5707 5705 5703 5702 5700 5698 5698 5696 5695 5695 5696 5696 5695 5695 5695 5695 5695 5695 5696 5696 5696 5696 5696 5696 5695 5695 5695 5695 5694 5694 5693 5693 5693 5694 5694 5695 5695
5715 5713 5711 5709 5707 5704 5702 5700 5698 5695 5693 5693 5690 5687 5688 5689 5689 5689 5689 5689 5688 5688 5689 5689 5689 5690 5690 5690 5691 5690 5690 5690 5690 5689 5689 5688 5688 5687 5688 5688 5688 5689 5689
5711 5710 5707 5704 5702 5700 5697 5695 5693 5689 5687 5687 5684 5679 5675 5677 5680 5682 5682 5682 5682 5682 5683 5684 5684 5684 5684 5685 5685 5685 5685 5685 5685 5684 5683 5683 5682 5682 5682 5682 5682 5683 5683
5708 5706 5703 5701 5698 5696 5693 5691 5689 5685 5682 5681 5681 5676 5669 5666 5669 5672 5674 5675 5675 5675 5676 5677 5677 5678 5678 5679 5679 5679 5679 5680 5679 5678 5678 5677 5677 5676 5676 5676 5676 5676 5677
5704 5702 5700 5698 5695 5692 5690 5687 5685 5683 5680 5676 5675 5674 5672 5669 5664 5662 5665 5667 5668 5669 5669 5671 5671 5671 5671 5672 5673 5673 5674 5674 5674 5673 5673 5672 5671 5671 5670 5670 5670 5670 5671
5700 5698 5696 5694 5691 5689 5686 5684 5681 5679 5677 5673 5671 5669 5667 5664 5662 5658 5656 5658 5660 5661 5662 5663 5664 5665 5665 5665 5666 5667 5667 5668 5667 5667 5667 5666 5666 5665 5665 5664 5664 5665 5665
5695 5694 5692 5690 5688 5685 5682 5680 5678 5675 5673 5670 5668 5666 5663 5660 5657 5654 5651 5650 5651 5653 5656 5657 5658 5658 5658 5658 5659 5660 5661 5661 5661 5661 5661 5660 5660 5659 5659 5659 5659 5659 5660
5690 5689 5688 5686 5684 5681 5679 5676 5674 5671 5669 5666 5664 5662 5660 5658 5657 5653 5649 5646 5645 5646 5648 5650 5651 5651 5651 5652 5652 5653 5654 5655 5655 5655 5655 5655 5654 5653 5653 5653 5654 5655 5655
5688 5687 5684 5682 5680 5677 5675 5672 5669 5667 5664 5662 5660 5658 5656 5655 5654 5651 5647 5643 5639 5638 5640 5641 5644 5645 5645 5646 5646 5647 5648 5649 5649 5649 5649 5649 5648 5648 5648 5648 5649 5650 5650
5686 5684 5681 5678 5676 5673 5670 5667 5664 5662 5660 5657 5655 5654 5652 5650 5649 5648 5646 5643 5637 5631 5631 5634 5636 5639 5639 5640 5641 5641 5642 5642 5643 5643 5643 5643 5643 5643 5642 5643 5643 5644 5645
5682 5680 5677 5674 5671 5668 5666 5662 5659 5657 5654 5652 5650 5648 5646 5645 5644 5642 5641 5639 5636 5632 5627 5628 5630 5632 5633 5634 5634 5635 5635 5636 5636 5636 5637 5637 5637 5637 5637 5637 5637 5638 5639
5679 5676 5673 5670 5666 5663 5661 5658 5655 5652 5649 5646 5644 5642 5641 5639 5637 5636 5635 5633 5631 5629 5624 5623 5624 5625 5626 5626 5627 5628 5629 5630 5630 5630 5630 5630 5630 5630 5631 5631 5632 5632 5633
5675 5673 5669 5666 5662 5659 5657 5653 5650 5647 5644 5641 5639 5637 5635 5634 5631 5629 5628 5626 5625 5624 5621 5617 5617 5618 5618 5620 5620 5621 5622 5623 5623 5624 5623 5623 5624 5624 5625 5625 5626 5626 5627
5671 5668 5665 5662 5659 5656 5652 5649 5646 5642 5639 5637 5634 5632 5630 5628 5625 5623 5622 5620 5618 5618 5616 5613 5611 5610 5611 5612 5612 5613 5615 5615 5616 5617 5617 5617 5617 5618 5618 5619 5620 5621 5621
5666 5663 5661 5658 5655 5652 5649 5645 5641 5638 5635 5632 5630 5628 5626 5624 5621 5619 5617 5614 5612 5610 5608 5606 5604 5603 5603 5604 5604 5604 5605 5606 5608 5610 5611 5611 5611 5611 5612 5613 5614 5615 5616
5661 5658 5655 5653 5650 5647 5645 5641 5637 5633 5630 5627 5625 5623 5621 5620 5619 5616 5614 5610 5607 5604 5601 5599 5597 5595 5595 5595 5595 5596 5596 5598 5600 5602 5603 5604 5604 5605 5606 5607 5608 5609 5610
5653 5651 5649 5646 5644 5642 5641 5638 5634 5629 5625 5622 5619 5617 5616 5615 5613 5611 5609 5607 5604 5600 5595 5593 5590 5589 5589 5590 5590 5590 5589 5589 5590 5594 5594 5596 5598 5598 5600 5601 5602 5603 5604
5646 5643 5641 5639 5637 5636 5635 5633 5629 5624 5620 5617 5614 5612 5611 5609 5606 5604 5602 5600 5598 5596 5595 5591 5587 5586 5586 5586 5585 5584 5583 5583 5583 5586 5587 5588 5590 5591 5594 5595 5596 5597 5597
5639 5637 5634 5632 5630 5629 5628 5625 5623 5617 5614 5611 5609 5607 5604 5602 5600 5598 5595 5592 5590 5589 5588 5587 5586 5585 5584 5583 5582 5581 5579 5578 5579 5580 5580 5579 5583 5584 5588 5588 5589 5589 5590
5632 5630 5628 5625 5623 5622 5621 5619 5615 5610 5606 5603 5601 5599 5598 5595 5595 5593 5589 5586 5583 5582 5583 5582 5582 5581 5580 5579 5577 5574 5572 5570 5570 5572 5573 5573 5575 5577 5580 5581 5582 5582 5582
5625 5623 5620 5618 5616 5614 5614 5611 5608 5603 5598 5595 5593 5592 5591 5590 5589 5586 5583 5580 5577 5576 5575 5575 5574 5573 5573 5572 5571 5569 5566 5563 5562 5563 5566 5566 5567 5567 5569 5573 5573 5574 5574